Home   Weather   San Jose   Past weeks

Flag for USA Past Weather in San Jose, California, USA — Yesterday and Last 2 Weeks

62 °F

Passing clouds.

Feels Like: 62 °F
Forecast: 58 / 68 °F
Wind: 13 mph from South

Location: San Jose International Airport

Current Time: Oct 24, 2016 at 5:28:00 AM

Latest Report: Oct 24, 2016 at 4:53 AM

Visibility: 10 mi

Pressure: 29.93 "Hg

Humidity: 73%

Dew Point: 53 °F

Location of San JoseLocation

Past Weather in San Jose — Graph


San Jose Temperature Yesterday

Maximum temperature yesterday: 73 °F (at 1:53 PM)
Minimum temperature yesterday: 51 °F (at 5:53 AM)
Average temperature yesterday: 61 °F

High & Low Weather Summary for the Past Weeks

High86 °F (Oct 9, 2:53 PM)93% (Oct 16, 8:53 AM)30.20 "Hg (Oct 16, 8:53 AM)
Low51 °F (Oct 19, 5:53 AM)18% (Oct 9, 2:53 PM)29.76 "Hg (Oct 16, 2:53 PM)
Average64 °F66%29.99 "Hg
* Reported Oct 9 3:53 AM — Oct 24 3:53 AM, San Jose, Weather by CustomWeather, © 2016

Note: Actual official high and low records may vary slightly from our data, if they occured in-between our weather recording intervals... More about our weather records


San Jose Weather History for the Previous 24 Hours

Scroll right to see more
Time TempWeatherWind HumidityBarometerVisibility
3:53 AM
Mon, Oct 24
63 °FOvercast.8 mph65%29.93 "Hg10 mi
2:53 AM61 °FPassing clouds.9 mph70%29.93 "Hg10 mi
1:53 AM60 °FClear.7 mph72%29.93 "Hg10 mi
12:53 AM59 °FClear.5 mph75%29.92 "Hg10 mi
11:53 PM
Sun, Oct 23
62 °FPassing clouds.8 mph70%29.91 "Hg10 mi
10:53 PM62 °FPassing clouds.14 mph70%29.92 "Hg10 mi
9:53 PM62 °FPassing clouds.13 mph70%29.90 "Hg10 mi
8:53 PM63 °FPassing clouds.15 mph68%29.90 "Hg10 mi
7:53 PM63 °FPassing clouds.16 mph68%29.89 "Hg10 mi
6:53 PM63 °FMostly cloudy.18 mph65%29.88 "Hg10 mi
5:53 PM64 °FBroken clouds.22 mph63%29.87 "Hg10 mi
4:53 PM67 °FBroken clouds.14 mph55%29.87 "Hg10 mi
3:53 PM70 °FScattered clouds.14 mph46%29.87 "Hg10 mi
2:53 PM72 °FScattered clouds.8 mph46%29.87 "Hg10 mi
1:53 PM73 °FScattered clouds.6 mph41%29.88 "Hg10 mi
12:53 PM70 °FScattered clouds.7 mph47%29.92 "Hg10 mi
11:53 AM66 °FPartly sunny.5 mph54%29.94 "Hg10 mi
10:53 AM64 °FScattered clouds.No wind54%29.94 "Hg10 mi
9:53 AM58 °FScattered clouds.No wind70%29.95 "Hg10 mi
8:53 AM55 °FBroken clouds.3 mph74%29.94 "Hg10 mi
7:53 AM52 °FBroken clouds.No wind80%29.92 "Hg10 mi
6:53 AM52 °FPassing clouds.No wind80%29.91 "Hg10 mi
5:53 AM51 °FPassing clouds.6 mph80%29.90 "Hg10 mi
Weather by CustomWeather, © 2016

See weather overviewHow to use our weather pages